Tracking 29892 objects as of 21-Nov-2024
HD Live streaming from Space Station
objects crossing your sky now

STARLINK-30368

Track STARLINK-30368 now!
10-day predictions
STARLINK-30368 is classified as:


NORAD ID: 57752
Int'l Code: 2023-131W
Perigee: 565.2 km
Apogee: 567.2 km
Inclination: 43.0 °
Period: 95.8 minutes
Semi major axis: 6937 km
RCS: Unknown
Launch date: September 1, 2023
Source: United States (US)
Launch site: AIR FORCE EASTERN TEST RANGE (AFETR)
Your satellite tracking list
Your tracking list is empty




NASA's NSSDC Master Catalog

Two Line Element Set (TLE):
1 57752U 23131W   24325.76814753  .00000984  00000-0  87859-4 0  9995
2 57752  43.0007 226.9526 0001399 275.2033  84.8650 15.02541048 68632
Source of the keplerian elements: AFSPC